Tracking 28790 objects as of 19-Apr-2024
HD Live streaming from Space Station
objects crossing your sky now

BEIDOU 3M5

Track BEIDOU 3M5 now!
BEIDOU 3M5 is classified as:


NORAD ID: 43207
Int'l Code: 2018-018A
Perigee: 21,514.6 km
Apogee: 21,555.7 km
Inclination: 56.0 °
Period: 773.2 minutes
Semi major axis: 27906 km
RCS: Unknown
Launch date: February 12, 2018
Source: People's Republic of China (PRC)
Launch site: Xichang Space Center, China (XSC)
Your satellite tracking list
Your tracking list is empty




NASA's NSSDC Master Catalog

Two Line Element Set (TLE):
1 43207U 18018A   24109.34177283  .00000030  00000-0  00000-0 0  9998
2 43207  55.9774  89.3413 0007358 339.0612  20.9024  1.86231545 42031
Source of the keplerian elements: AFSPC